Year,Month,Day,Hour,Minute,Value (Times are PST for temperature in C)
2015,09,22,00,00,8.50
2015,09,22,00,01,8.40
2015,09,22,00,02,8.40
2015,09,22,00,03,8.40
2015,09,22,00,04,8.40
2015,09,22,00,05,8.30
2015,09,22,00,06,8.30
2015,09,22,00,07,8.30
2015,09,22,00,08,8.30
2015,09,22,00,09,8.30
2015,09,22,00,10,8.30
2015,09,22,00,11,8.30
2015,09,22,00,12,8.30
2015,09,22,00,13,8.30
2015,09,22,00,14,8.30
2015,09,22,00,15,8.30
2015,09,22,00,16,8.30
2015,09,22,00,17,8.30
2015,09,22,00,18,8.30
2015,09,22,00,19,8.30
2015,09,22,00,20,8.30
2015,09,22,00,21,8.30
2015,09,22,00,22,8.30
2015,09,22,00,23,8.30
2015,09,22,00,24,8.20
2015,09,22,00,25,8.20
2015,09,22,00,26,8.20
2015,09,22,00,27,8.20
2015,09,22,00,28,8.20
2015,09,22,00,29,8.20
2015,09,22,00,30,8.20
2015,09,22,00,31,8.20
2015,09,22,00,32,8.20
2015,09,22,00,33,8.20
2015,09,22,00,34,8.20
2015,09,22,00,35,8.20
2015,09,22,00,36,8.20
2015,09,22,00,37,8.20
2015,09,22,00,38,8.20
2015,09,22,00,39,8.20
2015,09,22,00,40,8.20
2015,09,22,00,41,8.20
2015,09,22,00,42,8.10
2015,09,22,00,43,8.10
2015,09,22,00,44,8.10
2015,09,22,00,45,8.10
2015,09,22,00,46,8.10
2015,09,22,00,47,8.00
2015,09,22,00,48,8.00
2015,09,22,00,49,8.00
2015,09,22,00,50,7.90
2015,09,22,00,51,7.90
2015,09,22,00,52,7.90
2015,09,22,00,53,7.90
2015,09,22,00,54,7.90
2015,09,22,00,55,7.90
2015,09,22,00,56,7.90
2015,09,22,00,57,7.90
2015,09,22,00,58,7.90
2015,09,22,00,59,7.90
2015,09,22,01,00,7.90
2015,09,22,01,01,7.90
2015,09,22,01,02,7.90
2015,09,22,01,03,7.90
2015,09,22,01,04,7.80
2015,09,22,01,05,7.80
2015,09,22,01,06,7.80
2015,09,22,01,07,7.80
2015,09,22,01,08,7.80
2015,09,22,01,09,7.80
2015,09,22,01,10,7.80
2015,09,22,01,11,7.80
2015,09,22,01,12,7.70
2015,09,22,01,13,7.70
2015,09,22,01,14,7.70
2015,09,22,01,15,7.70
2015,09,22,01,16,7.70
2015,09,22,01,17,7.70
2015,09,22,01,18,7.70
2015,09,22,01,19,7.70
2015,09,22,01,20,7.70
2015,09,22,01,21,7.70
2015,09,22,01,22,7.70
2015,09,22,01,23,7.70
2015,09,22,01,24,7.70
2015,09,22,01,25,7.70
2015,09,22,01,26,7.60
2015,09,22,01,27,7.60
2015,09,22,01,28,7.60
2015,09,22,01,29,7.60
2015,09,22,01,30,7.60
2015,09,22,01,31,7.60
2015,09,22,01,32,7.60
2015,09,22,01,33,7.60
2015,09,22,01,34,7.60
2015,09,22,01,35,7.60
2015,09,22,01,36,7.60
2015,09,22,01,37,7.60
2015,09,22,01,38,7.50
2015,09,22,01,39,7.50
2015,09,22,01,40,7.50
2015,09,22,01,41,7.50
2015,09,22,01,42,7.50
2015,09,22,01,43,7.50
2015,09,22,01,44,7.50
2015,09,22,01,45,7.50
2015,09,22,01,46,7.50
2015,09,22,01,47,7.50
2015,09,22,01,48,7.50
2015,09,22,01,49,7.50
2015,09,22,01,50,7.40
2015,09,22,01,51,7.40
2015,09,22,01,52,7.40
2015,09,22,01,53,7.40
2015,09,22,01,54,7.40
2015,09,22,01,55,7.40
2015,09,22,01,56,7.40
2015,09,22,01,57,7.40
2015,09,22,01,58,7.30
2015,09,22,01,59,7.30
2015,09,22,02,00,7.30
2015,09,22,02,01,7.30
2015,09,22,02,02,7.30
2015,09,22,02,03,7.30
2015,09,22,02,04,7.30
2015,09,22,02,05,7.30
2015,09,22,02,06,7.30
2015,09,22,02,07,7.30
2015,09,22,02,08,7.30
2015,09,22,02,09,7.30
2015,09,22,02,10,7.30
2015,09,22,02,11,7.30
2015,09,22,02,12,7.30
2015,09,22,02,13,7.30
2015,09,22,02,14,7.30
2015,09,22,02,15,7.20
2015,09,22,02,16,7.20
2015,09,22,02,17,7.20
2015,09,22,02,18,7.20
2015,09,22,02,19,7.20
2015,09,22,02,20,7.20
2015,09,22,02,21,7.20
2015,09,22,02,22,7.20
2015,09,22,02,23,7.30
2015,09,22,02,24,7.30
2015,09,22,02,25,7.30
2015,09,22,02,26,7.30
2015,09,22,02,27,7.20
2015,09,22,02,28,7.20
2015,09,22,02,29,7.20
2015,09,22,02,30,7.20
2015,09,22,02,31,7.20
2015,09,22,02,32,7.20
2015,09,22,02,33,7.20
2015,09,22,02,34,7.20
2015,09,22,02,35,7.20
2015,09,22,02,36,7.20
2015,09,22,02,37,7.10
2015,09,22,02,38,7.10
2015,09,22,02,39,7.10
2015,09,22,02,40,7.10
2015,09,22,02,41,7.10
2015,09,22,02,42,7.00
2015,09,22,02,43,7.00
2015,09,22,02,44,7.00
2015,09,22,02,45,7.00
2015,09,22,02,46,7.00
2015,09,22,02,47,7.00
2015,09,22,02,48,7.00
2015,09,22,02,49,7.10
2015,09,22,02,50,7.10
2015,09,22,02,51,7.10
2015,09,22,02,52,7.10
2015,09,22,02,53,7.10
2015,09,22,02,54,7.10
2015,09,22,02,55,7.10
2015,09,22,02,56,7.10
2015,09,22,02,57,7.10
2015,09,22,02,58,7.10
2015,09,22,02,59,7.10
2015,09,22,03,00,7.10
2015,09,22,03,01,7.10
2015,09,22,03,02,7.10
2015,09,22,03,03,7.10
2015,09,22,03,04,7.10
2015,09,22,03,05,7.10
2015,09,22,03,06,7.10
2015,09,22,03,07,7.10
2015,09,22,03,08,7.10
2015,09,22,03,09,7.10
2015,09,22,03,10,7.00
2015,09,22,03,11,7.00
2015,09,22,03,12,7.00
2015,09,22,03,13,6.90
2015,09,22,03,14,6.90
2015,09,22,03,15,6.90
2015,09,22,03,16,6.90
2015,09,22,03,17,6.90
2015,09,22,03,18,6.90
2015,09,22,03,19,6.90
2015,09,22,03,20,6.90
2015,09,22,03,21,6.90
2015,09,22,03,22,6.90
2015,09,22,03,23,6.90
2015,09,22,03,24,6.80
2015,09,22,03,25,6.80
2015,09,22,03,26,6.80
2015,09,22,03,27,6.80
2015,09,22,03,28,6.80
2015,09,22,03,29,6.80
2015,09,22,03,30,6.80
2015,09,22,03,31,6.80
2015,09,22,03,32,6.80
2015,09,22,03,33,6.80
2015,09,22,03,34,6.80
2015,09,22,03,35,6.80
2015,09,22,03,36,6.80
2015,09,22,03,37,6.70
2015,09,22,03,38,6.70
2015,09,22,03,39,6.70
2015,09,22,03,40,6.70
2015,09,22,03,41,6.70
2015,09,22,03,42,6.70
2015,09,22,03,43,6.70
2015,09,22,03,44,6.60
2015,09,22,03,45,6.60
2015,09,22,03,46,6.60
2015,09,22,03,47,6.60
2015,09,22,03,48,6.60
2015,09,22,03,49,6.60
2015,09,22,03,50,6.60
2015,09,22,03,51,6.60
2015,09,22,03,52,6.60
2015,09,22,03,53,6.60
2015,09,22,03,54,6.60
2015,09,22,03,55,6.60
2015,09,22,03,56,6.60
2015,09,22,03,57,6.60
2015,09,22,03,58,6.60
2015,09,22,03,59,6.60
2015,09,22,04,00,6.60
2015,09,22,04,01,6.60
2015,09,22,04,02,6.50
2015,09,22,04,03,6.50
2015,09,22,04,04,6.50
2015,09,22,04,05,6.50
2015,09,22,04,06,6.50
2015,09,22,04,07,6.50
2015,09,22,04,08,6.50
2015,09,22,04,09,6.50
2015,09,22,04,10,6.40
2015,09,22,04,11,6.40
2015,09,22,04,12,6.40
2015,09,22,04,13,6.40
2015,09,22,04,14,6.40
2015,09,22,04,15,6.40
2015,09,22,04,16,6.30
2015,09,22,04,17,6.30
2015,09,22,04,18,6.30
2015,09,22,04,19,6.30
2015,09,22,04,20,6.30
2015,09,22,04,21,6.30
2015,09,22,04,22,6.20
2015,09,22,04,23,6.20
2015,09,22,04,24,6.20
2015,09,22,04,25,6.20
2015,09,22,04,26,6.20
2015,09,22,04,27,6.10
2015,09,22,04,28,6.10
2015,09,22,04,29,6.10
2015,09,22,04,30,6.10
2015,09,22,04,31,6.00
2015,09,22,04,32,6.00
2015,09,22,04,33,6.00
2015,09,22,04,34,5.90
2015,09,22,04,35,5.90
2015,09,22,04,36,5.90
2015,09,22,04,37,5.90
2015,09,22,04,38,5.90
2015,09,22,04,39,5.90
2015,09,22,04,40,5.90
2015,09,22,04,41,5.80
2015,09,22,04,42,5.80
2015,09,22,04,43,5.80
2015,09,22,04,44,5.80
2015,09,22,04,45,5.80
2015,09,22,04,46,5.80
2015,09,22,04,47,5.80
2015,09,22,04,48,5.70
2015,09,22,04,49,5.70
2015,09,22,04,50,5.70
2015,09,22,04,51,5.70
2015,09,22,04,52,5.70
2015,09,22,04,53,5.60
2015,09,22,04,54,5.60
2015,09,22,04,55,5.60
2015,09,22,04,56,5.60
2015,09,22,04,57,5.60
2015,09,22,04,58,5.60
2015,09,22,04,59,5.60
2015,09,22,05,00,5.60
2015,09,22,05,01,5.60
2015,09,22,05,02,5.60
2015,09,22,05,03,5.60
2015,09,22,05,04,5.50
2015,09,22,05,05,5.50
2015,09,22,05,06,5.50
2015,09,22,05,07,5.50
2015,09,22,05,08,5.50
2015,09,22,05,09,5.40
2015,09,22,05,10,5.40
2015,09,22,05,11,5.40
2015,09,22,05,12,5.40
2015,09,22,05,13,5.40
2015,09,22,05,14,5.40
2015,09,22,05,15,5.40
2015,09,22,05,16,5.40
2015,09,22,05,17,5.40
2015,09,22,05,18,5.40
2015,09,22,05,19,5.40
2015,09,22,05,20,5.40
2015,09,22,05,21,5.30
2015,09,22,05,22,5.30
2015,09,22,05,23,5.30
2015,09,22,05,24,5.30
2015,09,22,05,25,5.30
2015,09,22,05,26,5.30
2015,09,22,05,27,5.30
2015,09,22,05,28,5.30
2015,09,22,05,29,5.30
2015,09,22,05,30,5.30
2015,09,22,05,31,5.20
2015,09,22,05,32,5.20
2015,09,22,05,33,5.20
2015,09,22,05,34,5.20
2015,09,22,05,35,5.20
2015,09,22,05,36,5.20
2015,09,22,05,37,5.20
2015,09,22,05,38,5.20
2015,09,22,05,39,5.20
2015,09,22,05,40,5.20
2015,09,22,05,41,5.20
2015,09,22,05,42,5.20
2015,09,22,05,43,5.20
2015,09,22,05,44,5.20
2015,09,22,05,45,5.20
2015,09,22,05,46,5.20
2015,09,22,05,47,5.20
2015,09,22,05,48,5.20
2015,09,22,05,49,5.20
2015,09,22,05,50,5.20
2015,09,22,05,51,5.20
2015,09,22,05,52,5.20
2015,09,22,05,53,5.20
2015,09,22,05,54,5.20
2015,09,22,05,55,5.20
2015,09,22,05,56,5.10
2015,09,22,05,57,5.10
2015,09,22,05,58,5.10
2015,09,22,05,59,5.10
2015,09,22,06,00,5.10
2015,09,22,06,01,5.10
2015,09,22,06,02,5.10
2015,09,22,06,03,5.10
2015,09,22,06,04,5.10
2015,09,22,06,05,5.10
2015,09,22,06,06,5.10
2015,09,22,06,07,5.10
2015,09,22,06,08,5.10
2015,09,22,06,09,5.10
2015,09,22,06,10,5.10
2015,09,22,06,11,5.10
2015,09,22,06,12,5.10
2015,09,22,06,13,5.10
2015,09,22,06,14,5.10
2015,09,22,06,15,5.10
2015,09,22,06,16,5.10
2015,09,22,06,17,5.10
2015,09,22,06,18,5.10
2015,09,22,06,19,5.10
2015,09,22,06,20,5.10
2015,09,22,06,21,5.10
2015,09,22,06,22,5.00
2015,09,22,06,23,5.00
2015,09,22,06,24,5.00
2015,09,22,06,25,5.00
2015,09,22,06,26,5.00
2015,09,22,06,27,5.00
2015,09,22,06,28,5.00
2015,09,22,06,29,4.90
2015,09,22,06,30,4.90
2015,09,22,06,31,4.90
2015,09,22,06,32,4.90
2015,09,22,06,33,4.90
2015,09,22,06,34,4.90
2015,09,22,06,35,4.90
2015,09,22,06,36,4.90
2015,09,22,06,37,4.90
2015,09,22,06,38,4.90
2015,09,22,06,39,4.90
2015,09,22,06,40,4.90
2015,09,22,06,41,4.90
2015,09,22,06,42,4.90
2015,09,22,06,43,4.90
2015,09,22,06,44,4.90
2015,09,22,06,45,4.90
2015,09,22,06,46,4.90
2015,09,22,06,47,4.90
2015,09,22,06,48,4.90
2015,09,22,06,49,4.90
2015,09,22,06,50,4.90
2015,09,22,06,51,4.90
2015,09,22,06,52,4.90
2015,09,22,06,53,4.90
2015,09,22,06,54,4.90
2015,09,22,06,55,4.90
2015,09,22,06,56,4.90
2015,09,22,06,57,4.90
2015,09,22,06,58,4.90
2015,09,22,06,59,4.90
2015,09,22,07,00,4.90
2015,09,22,07,01,4.90
2015,09,22,07,02,4.90
2015,09,22,07,03,4.90
2015,09,22,07,04,4.90
2015,09,22,07,05,4.90
2015,09,22,07,06,4.90
2015,09,22,07,07,4.90
2015,09,22,07,08,4.90
2015,09,22,07,09,4.90
2015,09,22,07,10,5.00
2015,09,22,07,11,5.00
2015,09,22,07,12,5.00
2015,09,22,07,13,5.00
2015,09,22,07,14,5.00
2015,09,22,07,15,5.00
2015,09,22,07,16,5.00
2015,09,22,07,17,5.00
2015,09,22,07,18,5.00
2015,09,22,07,19,4.90
2015,09,22,07,20,4.90
2015,09,22,07,21,4.90
2015,09,22,07,22,4.90
2015,09,22,07,23,4.90
2015,09,22,07,24,4.90
2015,09,22,07,25,4.90
2015,09,22,07,26,4.90
2015,09,22,07,27,4.90
2015,09,22,07,28,4.90
2015,09,22,07,29,4.90
2015,09,22,07,30,4.90
2015,09,22,07,31,4.90
2015,09,22,07,32,4.90
2015,09,22,07,33,4.90
2015,09,22,07,34,4.90
2015,09,22,07,35,4.90
2015,09,22,07,36,4.90
2015,09,22,07,37,4.90
2015,09,22,07,38,4.90
2015,09,22,07,39,4.90
2015,09,22,07,40,4.90
2015,09,22,07,41,4.90
2015,09,22,07,42,5.00
2015,09,22,07,43,5.00
2015,09,22,07,44,5.10
2015,09,22,07,45,5.10
2015,09,22,07,46,5.10
2015,09,22,07,47,5.10
2015,09,22,07,48,5.20
2015,09,22,07,49,5.20
2015,09,22,07,50,5.20
2015,09,22,07,51,5.20
2015,09,22,07,52,5.20
2015,09,22,07,53,5.30
2015,09,22,07,54,5.30
2015,09,22,07,55,5.30
2015,09,22,07,56,5.30
2015,09,22,07,57,5.30
2015,09,22,07,58,5.30
2015,09,22,07,59,5.40
2015,09,22,08,00,5.40
2015,09,22,08,01,5.40
2015,09,22,08,02,5.50
2015,09,22,08,03,5.50
2015,09,22,08,04,5.60
2015,09,22,08,05,5.60
2015,09,22,08,06,5.60
2015,09,22,08,07,5.60
2015,09,22,08,08,5.70
2015,09,22,08,09,5.70
2015,09,22,08,10,5.70
2015,09,22,08,11,5.70
2015,09,22,08,12,5.70
2015,09,22,08,13,5.80
2015,09,22,08,14,5.80
2015,09,22,08,15,5.80
2015,09,22,08,16,5.90
2015,09,22,08,17,5.90
2015,09,22,08,18,6.00
2015,09,22,08,19,6.00
2015,09,22,08,20,6.10
2015,09,22,08,21,6.20
2015,09,22,08,22,6.20
2015,09,22,08,23,6.30
2015,09,22,08,24,6.30
2015,09,22,08,25,6.30
2015,09,22,08,26,6.40
2015,09,22,08,27,6.50
2015,09,22,08,28,6.50
2015,09,22,08,29,6.60
2015,09,22,08,30,6.70
2015,09,22,08,31,6.70
2015,09,22,08,32,6.70
2015,09,22,08,33,6.80
2015,09,22,08,34,6.80
2015,09,22,08,35,6.80
2015,09,22,08,36,6.90
2015,09,22,08,37,6.90
2015,09,22,08,38,7.00
2015,09,22,08,39,7.00
2015,09,22,08,40,7.10
2015,09,22,08,41,7.10
2015,09,22,08,42,7.20
2015,09,22,08,43,7.20
2015,09,22,08,44,7.20
2015,09,22,08,45,7.30
2015,09,22,08,46,7.30
2015,09,22,08,47,7.30
2015,09,22,08,48,7.30
2015,09,22,08,49,7.40
2015,09,22,08,50,7.40
2015,09,22,08,51,7.50
2015,09,22,08,52,7.50
2015,09,22,08,53,7.50
2015,09,22,08,54,7.60
2015,09,22,08,55,7.60
2015,09,22,08,56,7.60
2015,09,22,08,57,7.60
2015,09,22,08,58,7.70
2015,09,22,08,59,7.70
2015,09,22,09,00,7.70
2015,09,22,09,01,7.70
2015,09,22,09,02,7.80
2015,09,22,09,03,7.90
2015,09,22,09,04,8.00
2015,09,22,09,05,8.00
2015,09,22,09,06,8.10
2015,09,22,09,07,8.10
2015,09,22,09,08,8.20
2015,09,22,09,09,8.30
2015,09,22,09,10,8.40
2015,09,22,09,11,8.40
2015,09,22,09,12,8.50
2015,09,22,09,13,8.60
2015,09,22,09,14,8.70
2015,09,22,09,15,8.70
2015,09,22,09,16,8.80
2015,09,22,09,17,8.80
2015,09,22,09,18,8.90
2015,09,22,09,19,9.00
2015,09,22,09,20,9.00
2015,09,22,09,21,9.10
2015,09,22,09,22,9.20
2015,09,22,09,23,9.30
2015,09,22,09,24,9.30
2015,09,22,09,25,9.50
2015,09,22,09,26,9.60
2015,09,22,09,27,9.70
2015,09,22,09,28,9.80
2015,09,22,09,29,9.90
2015,09,22,09,30,10.00
2015,09,22,09,31,10.20
2015,09,22,09,32,10.30
2015,09,22,09,33,10.40
2015,09,22,09,34,10.50
2015,09,22,09,35,10.60
2015,09,22,09,36,10.70
2015,09,22,09,37,10.80
2015,09,22,09,38,10.80
2015,09,22,09,39,10.90
2015,09,22,09,40,11.00
2015,09,22,09,41,11.00
2015,09,22,09,42,11.10
2015,09,22,09,43,11.20
2015,09,22,09,44,11.30
2015,09,22,09,45,11.40
2015,09,22,09,46,11.50
2015,09,22,09,47,11.50
2015,09,22,09,48,11.60
2015,09,22,09,49,11.60
2015,09,22,09,50,11.70
2015,09,22,09,51,11.80
2015,09,22,09,52,11.90
2015,09,22,09,53,11.90
2015,09,22,09,54,12.00
2015,09,22,09,55,12.00
2015,09,22,09,56,12.10
2015,09,22,09,57,12.10
2015,09,22,09,58,12.20
2015,09,22,09,59,12.20
2015,09,22,10,00,12.30
2015,09,22,10,01,12.30
2015,09,22,10,02,12.30
2015,09,22,10,03,12.40
2015,09,22,10,04,12.40
2015,09,22,10,05,12.40
2015,09,22,10,06,12.40
2015,09,22,10,07,12.40
2015,09,22,10,08,12.40
2015,09,22,10,09,12.50
2015,09,22,10,10,12.50
2015,09,22,10,11,12.60
2015,09,22,10,12,12.60
2015,09,22,10,13,12.70
2015,09,22,10,14,12.70
2015,09,22,10,15,12.80
2015,09,22,10,16,12.80
2015,09,22,10,17,12.90
2015,09,22,10,18,12.90
2015,09,22,10,19,13.00
2015,09,22,10,20,13.00
2015,09,22,10,21,13.10
2015,09,22,10,22,13.10
2015,09,22,10,23,13.10
2015,09,22,10,24,13.20
2015,09,22,10,25,13.20
2015,09,22,10,26,13.20
2015,09,22,10,27,13.30
2015,09,22,10,28,13.30
2015,09,22,10,29,13.30
2015,09,22,10,30,13.30
2015,09,22,10,31,13.30
2015,09,22,10,32,13.30
2015,09,22,10,33,13.40
2015,09,22,10,34,13.40
2015,09,22,10,35,13.40
2015,09,22,10,36,13.50
2015,09,22,10,37,13.60
2015,09,22,10,38,13.60
2015,09,22,10,39,13.70
2015,09,22,10,40,13.70
2015,09,22,10,41,13.80
2015,09,22,10,42,13.80
2015,09,22,10,43,13.90
2015,09,22,10,44,13.90
2015,09,22,10,45,13.90
2015,09,22,10,46,13.90
2015,09,22,10,47,13.90
2015,09,22,10,48,13.90
2015,09,22,10,49,14.00
2015,09,22,10,50,14.00
2015,09,22,10,51,14.10
2015,09,22,10,52,14.10
2015,09,22,10,53,14.10
2015,09,22,10,54,14.10
2015,09,22,10,55,14.10
2015,09,22,10,56,14.10
2015,09,22,10,57,14.20
2015,09,22,10,58,14.20
2015,09,22,10,59,14.30
2015,09,22,11,00,14.30
2015,09,22,11,01,14.30
2015,09,22,11,02,14.40
2015,09,22,11,03,14.40
2015,09,22,11,04,14.40
2015,09,22,11,05,14.50
2015,09,22,11,06,14.50
2015,09,22,11,07,14.50
2015,09,22,11,08,14.50
2015,09,22,11,09,14.50
2015,09,22,11,10,14.60
2015,09,22,11,11,14.60
2015,09,22,11,12,14.60
2015,09,22,11,13,14.60
2015,09,22,11,14,14.60
2015,09,22,11,15,14.50
2015,09,22,11,16,14.50
2015,09,22,11,17,14.50
2015,09,22,11,18,14.50
2015,09,22,11,19,14.50
2015,09,22,11,20,14.50
2015,09,22,11,21,14.50
2015,09,22,11,22,14.60
2015,09,22,11,23,14.50
2015,09,22,11,24,14.40
2015,09,22,11,25,14.40
2015,09,22,11,26,14.40
2015,09,22,11,27,14.40
2015,09,22,11,28,14.40
2015,09,22,11,29,14.50
2015,09,22,11,30,14.50
2015,09,22,11,31,14.50
2015,09,22,11,32,14.50
2015,09,22,11,33,14.60
2015,09,22,11,34,14.60
2015,09,22,11,35,14.70
2015,09,22,11,36,14.70
2015,09,22,11,37,14.70
2015,09,22,11,38,14.70
2015,09,22,11,39,14.80
2015,09,22,11,40,14.70
2015,09,22,11,41,14.70
2015,09,22,11,42,14.70
2015,09,22,11,43,14.70
2015,09,22,11,44,14.70
2015,09,22,11,45,14.60
2015,09,22,11,46,14.60
2015,09,22,11,47,14.60
2015,09,22,11,48,14.60
2015,09,22,11,49,14.60
2015,09,22,11,50,14.60
2015,09,22,11,51,14.60
2015,09,22,11,52,14.60
2015,09,22,11,53,14.60
2015,09,22,11,54,14.60
2015,09,22,11,55,14.60
2015,09,22,11,56,14.70
2015,09,22,11,57,14.70
2015,09,22,11,58,14.80
2015,09,22,11,59,14.90
2015,09,22,12,00,15.00
2015,09,22,12,01,15.00
2015,09,22,12,02,15.00
2015,09,22,12,03,14.90
2015,09,22,12,04,14.90
2015,09,22,12,05,14.90
2015,09,22,12,06,14.90
2015,09,22,12,07,14.90
2015,09,22,12,08,14.80
2015,09,22,12,09,14.80
2015,09,22,12,10,14.70
2015,09,22,12,11,14.70
2015,09,22,12,12,14.70
2015,09,22,12,13,14.70
2015,09,22,12,14,14.60
2015,09,22,12,15,14.60
2015,09,22,12,16,14.50
2015,09,22,12,17,14.40
2015,09,22,12,18,14.40
2015,09,22,12,19,14.30
2015,09,22,12,20,14.40
2015,09,22,12,21,14.40
2015,09,22,12,22,14.40
2015,09,22,12,23,14.40
2015,09,22,12,24,14.40
2015,09,22,12,25,14.40
2015,09,22,12,26,14.40
2015,09,22,12,27,14.30
2015,09,22,12,28,14.30
2015,09,22,12,29,14.30
2015,09,22,12,30,14.30
2015,09,22,12,31,14.20
2015,09,22,12,32,14.20
2015,09,22,12,33,14.10
2015,09,22,12,34,14.10
2015,09,22,12,35,14.10
2015,09,22,12,36,14.20
2015,09,22,12,37,14.20
2015,09,22,12,38,14.30
2015,09,22,12,39,14.40
2015,09,22,12,40,14.50
2015,09,22,12,41,14.60
2015,09,22,12,42,14.60
2015,09,22,12,43,14.70
2015,09,22,12,44,14.80
2015,09,22,12,45,14.80
2015,09,22,12,46,14.80
2015,09,22,12,47,14.80
2015,09,22,12,48,14.80
2015,09,22,12,49,14.80
2015,09,22,12,50,14.70
2015,09,22,12,51,14.60
2015,09,22,12,52,14.50
2015,09,22,12,53,14.50
2015,09,22,12,54,14.40
2015,09,22,12,55,14.30
2015,09,22,12,56,14.20
2015,09,22,12,57,14.10
2015,09,22,12,58,14.10
2015,09,22,12,59,14.10
2015,09,22,13,00,14.10
2015,09,22,13,01,14.10
2015,09,22,13,02,14.20
2015,09,22,13,03,14.20
2015,09,22,13,04,14.20
2015,09,22,13,05,14.20
2015,09,22,13,06,14.30
2015,09,22,13,07,14.30
2015,09,22,13,08,14.30
2015,09,22,13,09,14.30
2015,09,22,13,10,14.30
2015,09,22,13,11,14.30
2015,09,22,13,12,14.30
2015,09,22,13,13,14.30
2015,09,22,13,14,14.40
2015,09,22,13,15,14.40
2015,09,22,13,16,14.40
2015,09,22,13,17,14.50
2015,09,22,13,18,14.50
2015,09,22,13,19,14.60
2015,09,22,13,20,14.60
2015,09,22,13,21,14.60
2015,09,22,13,22,14.60
2015,09,22,13,23,14.70
2015,09,22,13,24,14.60
2015,09,22,13,25,14.60
2015,09,22,13,26,14.60
2015,09,22,13,27,14.70
2015,09,22,13,28,14.70
2015,09,22,13,29,14.80
2015,09,22,13,30,14.90
2015,09,22,13,31,14.90
2015,09,22,13,32,14.90
2015,09,22,13,33,14.90
2015,09,22,13,34,14.90
2015,09,22,13,35,15.00
2015,09,22,13,36,15.10
2015,09,22,13,37,15.10
2015,09,22,13,38,15.20
2015,09,22,13,39,15.20
2015,09,22,13,40,15.20
2015,09,22,13,41,15.20
2015,09,22,13,42,15.20
2015,09,22,13,43,15.20
2015,09,22,13,44,15.30
2015,09,22,13,45,15.30
2015,09,22,13,46,15.30
2015,09,22,13,47,15.30
2015,09,22,13,48,15.30
2015,09,22,13,49,15.30
2015,09,22,13,50,15.40
2015,09,22,13,51,15.30
2015,09,22,13,52,15.40
2015,09,22,13,53,15.40
2015,09,22,13,54,15.40
2015,09,22,13,55,15.40
2015,09,22,13,56,15.40
2015,09,22,13,57,15.50
2015,09,22,13,58,15.50
2015,09,22,13,59,15.40
2015,09,22,14,00,15.30
2015,09,22,14,01,15.30
2015,09,22,14,02,15.20
2015,09,22,14,03,15.20
2015,09,22,14,04,15.20
2015,09,22,14,05,15.10
2015,09,22,14,06,15.10
2015,09,22,14,07,14.90
2015,09,22,14,08,14.80
2015,09,22,14,09,14.80
2015,09,22,14,10,14.70
2015,09,22,14,11,14.70
2015,09,22,14,12,14.60
2015,09,22,14,13,14.50
2015,09,22,14,14,14.50
2015,09,22,14,15,14.60
2015,09,22,14,16,14.60
2015,09,22,14,17,14.60
2015,09,22,14,18,14.70
2015,09,22,14,19,14.60
2015,09,22,14,20,14.60
2015,09,22,14,21,14.60
2015,09,22,14,22,14.50
2015,09,22,14,23,14.50
2015,09,22,14,24,14.40
2015,09,22,14,25,14.40
2015,09,22,14,26,14.40
2015,09,22,14,27,14.30
2015,09,22,14,28,14.30
2015,09,22,14,29,14.30
2015,09,22,14,30,14.20
2015,09,22,14,31,14.20
2015,09,22,14,32,14.10
2015,09,22,14,33,14.10
2015,09,22,14,34,14.00
2015,09,22,14,35,13.90
2015,09,22,14,36,13.90
2015,09,22,14,37,13.90
2015,09,22,14,38,13.90
2015,09,22,14,39,13.90
2015,09,22,14,40,13.90
2015,09,22,14,41,13.90
2015,09,22,14,42,13.90
2015,09,22,14,43,13.90
2015,09,22,14,44,13.90
2015,09,22,14,45,13.90
2015,09,22,14,46,14.00
2015,09,22,14,47,14.10
2015,09,22,14,48,14.10
2015,09,22,14,49,14.10
2015,09,22,14,50,14.10
2015,09,22,14,51,14.00
2015,09,22,14,52,13.90
2015,09,22,14,53,13.90
2015,09,22,14,54,13.90
2015,09,22,14,55,13.90
2015,09,22,14,56,14.00
2015,09,22,14,57,14.10
2015,09,22,14,58,14.20
2015,09,22,14,59,14.20
2015,09,22,15,00,14.30
2015,09,22,15,01,14.30
2015,09,22,15,02,14.30
2015,09,22,15,03,14.20
2015,09,22,15,04,14.20
2015,09,22,15,05,14.20
2015,09,22,15,06,14.30
2015,09,22,15,07,14.30
2015,09,22,15,08,14.30
2015,09,22,15,09,14.30
2015,09,22,15,10,14.30
2015,09,22,15,11,14.30
2015,09,22,15,12,14.30
2015,09,22,15,13,14.20
2015,09,22,15,14,14.20
2015,09,22,15,15,14.10
2015,09,22,15,16,14.10
2015,09,22,15,17,14.10
2015,09,22,15,18,14.10
2015,09,22,15,19,14.10
2015,09,22,15,20,14.10
2015,09,22,15,21,14.10
2015,09,22,15,22,14.10
2015,09,22,15,23,14.10
2015,09,22,15,24,14.10
2015,09,22,15,25,14.10
2015,09,22,15,26,14.10
2015,09,22,15,27,14.10
2015,09,22,15,28,14.10
2015,09,22,15,29,14.10
2015,09,22,15,30,14.10
2015,09,22,15,31,14.10
2015,09,22,15,32,14.00
2015,09,22,15,33,14.10
2015,09,22,15,34,14.00
2015,09,22,15,35,14.10
2015,09,22,15,36,14.10
2015,09,22,15,37,14.10
2015,09,22,15,38,14.10
2015,09,22,15,39,14.10
2015,09,22,15,40,14.00
2015,09,22,15,41,14.00
2015,09,22,15,42,13.90
2015,09,22,15,43,13.90
2015,09,22,15,44,13.80
2015,09,22,15,45,13.90
2015,09,22,15,46,13.90
2015,09,22,15,47,13.90
2015,09,22,15,48,13.90
2015,09,22,15,49,13.90
2015,09,22,15,50,13.90
2015,09,22,15,51,13.90
2015,09,22,15,52,13.90
2015,09,22,15,53,13.90
2015,09,22,15,54,13.90
2015,09,22,15,55,13.90
2015,09,22,15,56,13.90
2015,09,22,15,57,13.90
2015,09,22,15,58,13.90
2015,09,22,15,59,13.90
2015,09,22,16,00,13.90
2015,09,22,16,01,13.90
2015,09,22,16,02,13.90
2015,09,22,16,03,13.90
2015,09,22,16,04,13.80
2015,09,22,16,05,13.80
2015,09,22,16,06,13.80
2015,09,22,16,07,13.80
2015,09,22,16,08,13.80
2015,09,22,16,09,13.80
2015,09,22,16,10,13.80
2015,09,22,16,11,13.80
2015,09,22,16,12,13.80
2015,09,22,16,13,13.80
2015,09,22,16,14,13.80
2015,09,22,16,15,13.80
2015,09,22,16,16,13.80
2015,09,22,16,17,13.80
2015,09,22,16,18,13.80
2015,09,22,16,19,13.80
2015,09,22,16,20,13.80
2015,09,22,16,21,13.80
2015,09,22,16,22,13.80
2015,09,22,16,23,13.80
2015,09,22,16,24,13.80
2015,09,22,16,25,13.80
2015,09,22,16,26,13.80
2015,09,22,16,27,13.90
2015,09,22,16,28,13.90
2015,09,22,16,29,14.00
2015,09,22,16,30,14.00
2015,09,22,16,31,14.10
2015,09,22,16,32,14.10
2015,09,22,16,33,14.10
2015,09,22,16,34,14.10
2015,09,22,16,35,14.10
2015,09,22,16,36,14.00
2015,09,22,16,37,14.00
2015,09,22,16,38,14.00
2015,09,22,16,39,14.00
2015,09,22,16,40,14.10
2015,09,22,16,41,14.10
2015,09,22,16,42,14.10
2015,09,22,16,43,14.20
2015,09,22,16,44,14.20
2015,09,22,16,45,14.20
2015,09,22,16,46,14.20
2015,09,22,16,47,14.20
2015,09,22,16,48,14.30
2015,09,22,16,49,14.20
2015,09,22,16,50,14.20
2015,09,22,16,51,14.20
2015,09,22,16,52,14.20
2015,09,22,16,53,14.20
2015,09,22,16,54,14.20
2015,09,22,16,55,14.20
2015,09,22,16,56,14.20
2015,09,22,16,57,14.20
2015,09,22,16,58,14.20
2015,09,22,16,59,14.30
2015,09,22,17,00,14.30
2015,09,22,17,01,14.30
2015,09,22,17,02,14.40
2015,09,22,17,03,14.40
2015,09,22,17,04,14.50
2015,09,22,17,05,14.50
2015,09,22,17,06,14.40
2015,09,22,17,07,14.40
2015,09,22,17,08,14.30
2015,09,22,17,09,14.30
2015,09,22,17,10,14.20
2015,09,22,17,11,14.20
2015,09,22,17,12,14.10
2015,09,22,17,13,14.10
2015,09,22,17,14,14.10
2015,09,22,17,15,14.00
2015,09,22,17,16,13.90
2015,09,22,17,17,13.90
2015,09,22,17,18,13.90
2015,09,22,17,19,13.80
2015,09,22,17,20,13.80
2015,09,22,17,21,13.80
2015,09,22,17,22,13.70
2015,09,22,17,23,13.70
2015,09,22,17,24,13.70
2015,09,22,17,25,13.70
2015,09,22,17,26,13.70
2015,09,22,17,27,13.70
2015,09,22,17,28,13.70
2015,09,22,17,29,13.70
2015,09,22,17,30,13.60
2015,09,22,17,31,13.60
2015,09,22,17,32,13.60
2015,09,22,17,33,13.60
2015,09,22,17,34,13.60
2015,09,22,17,35,13.60
2015,09,22,17,36,13.50
2015,09,22,17,37,13.50
2015,09,22,17,38,13.50
2015,09,22,17,39,13.50
2015,09,22,17,40,13.50
2015,09,22,17,41,13.60
2015,09,22,17,42,13.60
2015,09,22,17,43,13.60
2015,09,22,17,44,13.60